TimeEDT,TemperatureF,Dew PointF,Humidity,Sea Level PressureIn,VisibilityMPH,Wind Direction,Wind SpeedMPH,Gust SpeedMPH,PrecipitationIn,Events,Conditions,WindDirDegrees,DateUTC
12:15 AM,70.9,65.7,83,30.00,10.0,South,5.8,-,N/A,,Clear,170,2013-05-23 04:15:00
12:35 AM,70.7,65.8,85,30.00,10.0,SSE,5.8,-,N/A,,Clear,160,2013-05-23 04:35:00
12:55 AM,70.3,66.0,86,29.99,10.0,SSE,5.8,-,N/A,,Clear,160,2013-05-23 04:55:00
1:15 AM,70.0,66.2,88,29.98,10.0,SSE,4.6,-,N/A,,Clear,160,2013-05-23 05:15:00
1:35 AM,69.8,66.2,88,29.98,10.0,SSE,6.9,-,N/A,,Clear,160,2013-05-23 05:35:00
1:55 AM,69.8,66.4,89,29.97,10.0,SSE,4.6,-,N/A,,Clear,160,2013-05-23 05:55:00
2:15 AM,69.8,66.6,89,29.97,10.0,South,4.6,-,N/A,,Clear,170,2013-05-23 06:15:00
2:35 AM,69.4,66.6,91,29.97,10.0,South,5.8,-,N/A,,Clear,170,2013-05-23 06:35:00
2:55 AM,69.3,66.6,91,29.97,10.0,South,3.5,-,N/A,,Scattered Clouds,180,2013-05-23 06:55:00
3:15 AM,69.3,66.7,92,29.97,10.0,Calm,Calm,-,N/A,,Overcast,0,2013-05-23 07:15:00
3:35 AM,69.4,66.9,92,29.97,10.0,South,3.5,-,N/A,,Mostly Cloudy,170,2013-05-23 07:35:00
3:55 AM,69.4,67.1,92,29.97,7.0,SSE,3.5,-,N/A,Rain,Light Rain,160,2013-05-23 07:55:00
4:15 AM,69.8,67.1,91,29.97,10.0,Calm,Calm,-,N/A,Rain,Light Rain,0,2013-05-23 08:15:00
4:35 AM,69.6,67.1,92,29.96,10.0,Calm,Calm,-,N/A,,Overcast,0,2013-05-23 08:35:00
4:55 AM,69.6,67.1,92,29.96,10.0,Calm,Calm,-,N/A,,Overcast,0,2013-05-23 08:55:00
5:15 AM,69.4,67.3,93,29.95,10.0,Calm,Calm,-,N/A,,Overcast,0,2013-05-23 09:15:00
5:35 AM,69.4,67.3,93,29.96,7.0,Calm,Calm,-,N/A,,Overcast,0,2013-05-23 09:35:00
5:55 AM,69.6,67.5,93,29.96,7.0,Calm,Calm,-,N/A,,Overcast,0,2013-05-23 09:55:00
6:15 AM,69.8,67.5,92,29.96,7.0,Calm,Calm,-,N/A,,Overcast,0,2013-05-23 10:15:00
6:35 AM,69.8,67.5,92,29.96,7.0,Calm,Calm,-,N/A,,Overcast,0,2013-05-23 10:35:00
6:55 AM,69.8,67.8,93,29.97,7.0,Calm,Calm,-,N/A,,Overcast,0,2013-05-23 10:55:00
7:15 AM,70.3,68.0,92,29.97,7.0,Calm,Calm,-,N/A,,Overcast,0,2013-05-23 11:15:00
7:35 AM,70.7,68.2,92,29.96,3.0,Calm,Calm,-,0.03,Rain,Light Rain,0,2013-05-23 11:35:00
7:55 AM,70.5,68.0,92,29.97,2.5,Calm,Calm,-,0.07,Rain,Rain,0,2013-05-23 11:55:00
8:15 AM,70.3,68.2,93,29.96,2.0,Calm,Calm,-,0.06,Rain,Rain,0,2013-05-23 12:15:00
8:35 AM,70.7,68.4,92,29.96,10.0,South,5.8,-,0.07,,Mostly Cloudy,170,2013-05-23 12:35:00
8:55 AM,70.9,68.4,92,29.95,10.0,SSE,4.6,-,0.07,,Mostly Cloudy,160,2013-05-23 12:55:00
9:15 AM,71.8,68.7,90,29.95,10.0,SSE,5.8,-,N/A,Rain,Light Rain,160,2013-05-23 13:15:00
9:35 AM,72.3,69.1,89,29.95,10.0,SSE,6.9,-,N/A,,Overcast,160,2013-05-23 13:35:00
9:55 AM,73.0,69.1,87,29.95,10.0,South,5.8,-,N/A,,Mostly Cloudy,170,2013-05-23 13:55:00
10:15 AM,73.8,68.9,85,29.95,10.0,South,6.9,-,N/A,,Overcast,170,2013-05-23 14:15:00
10:35 AM,74.5,68.9,83,29.95,10.0,SSE,4.6,-,N/A,,Overcast,160,2013-05-23 14:35:00
10:55 AM,75.0,69.1,82,29.94,10.0,South,4.6,-,N/A,,Overcast,190,2013-05-23 14:55:00
11:15 AM,76.1,69.1,79,29.94,10.0,SSE,6.9,-,N/A,,Overcast,160,2013-05-23 15:15:00
11:35 AM,77.0,68.7,75,29.94,10.0,South,5.8,-,N/A,,Overcast,190,2013-05-23 15:35:00
11:55 AM,78.3,67.8,70,29.94,10.0,SSW,5.8,-,N/A,,Mostly Cloudy,200,2013-05-23 15:55:00
12:15 PM,79.3,67.6,67,29.93,10.0,WSW,4.6,-,N/A,,Mostly Cloudy,240,2013-05-23 16:15:00
12:35 PM,80.1,67.8,66,29.92,10.0,SSE,6.9,-,N/A,,Overcast,150,2013-05-23 16:35:00
12:55 PM,79.5,68.4,69,29.91,10.0,Calm,Calm,-,N/A,,Scattered Clouds,0,2013-05-23 16:55:00
1:15 PM,78.1,68.0,71,29.91,2.5,South,9.2,-,0.08,Rain,Heavy Rain,170,2013-05-23 17:15:00
1:35 PM,73.8,68.2,83,29.90,4.0,ESE,3.5,-,0.22,Rain,Rain,110,2013-05-23 17:35:00
1:55 PM,74.8,69.4,83,29.89,10.0,SSW,3.5,-,0.22,,Light Drizzle,210,2013-05-23 17:55:00
2:15 PM,76.1,69.8,81,29.88,10.0,Calm,Calm,-,N/A,,Light Drizzle,0,2013-05-23 18:15:00
2:35 PM,78.3,70.5,77,29.87,10.0,SE,6.9,-,N/A,,Scattered Clouds,140,2013-05-23 18:35:00
2:55 PM,78.6,70.5,76,29.86,10.0,ESE,8.1,-,N/A,,Mostly Cloudy,120,2013-05-23 18:55:00
3:15 PM,79.7,70.2,73,29.85,10.0,East,6.9,-,N/A,,Scattered Clouds,100,2013-05-23 19:15:00
3:35 PM,80.6,69.3,68,29.85,10.0,ESE,9.2,-,N/A,,Clear,120,2013-05-23 19:35:00
3:55 PM,80.8,68.2,65,29.85,10.0,SE,10.4,-,N/A,,Scattered Clouds,140,2013-05-23 19:55:00
4:15 PM,80.1,67.5,65,29.85,10.0,South,6.9,-,N/A,,Scattered Clouds,170,2013-05-23 20:15:00
4:35 PM,78.6,68.2,70,29.84,10.0,SSE,4.6,-,N/A,,Mostly Cloudy,150,2013-05-23 20:35:00
4:55 PM,76.6,67.3,73,29.85,10.0,West,10.4,17.3,N/A,,Overcast,280,2013-05-23 20:55:00
5:15 PM,72.1,64.8,78,29.85,10.0,SW,5.8,-,N/A,,Overcast,230,2013-05-23 21:15:00
5:35 PM,70.2,63.9,80,29.84,4.0,SSE,4.6,-,0.06,Rain,Heavy Rain,150,2013-05-23 21:35:00
5:55 PM,68.0,64.4,88,29.84,7.0,West,5.8,-,0.07,Rain,Rain,280,2013-05-23 21:55:00
6:15 PM,67.5,64.6,90,29.84,7.0,East,5.8,-,0.01,Rain,Light Rain,90,2013-05-23 22:15:00
6:35 PM,67.5,64.9,92,29.84,10.0,SSW,4.6,-,0.01,,Mostly Cloudy,200,2013-05-23 22:35:00
6:55 PM,67.5,65.3,93,29.84,10.0,Calm,Calm,-,0.01,,Mostly Cloudy,0,2013-05-23 22:55:00
7:15 PM,67.5,65.1,92,29.84,10.0,Calm,Calm,-,N/A,,Scattered Clouds,0,2013-05-23 23:15:00
7:35 PM,67.5,65.1,92,29.85,10.0,South,5.8,-,0.01,Rain,Light Rain,170,2013-05-23 23:35:00
7:55 PM,67.3,64.6,91,29.84,10.0,SSW,8.1,-,0.01,,Scattered Clouds,200,2013-05-23 23:55:00
8:15 PM,67.1,64.6,92,29.85,10.0,SSW,8.1,-,N/A,Rain,Light Rain,200,2013-05-24 00:15:00
8:35 PM,67.3,64.8,92,29.84,10.0,Calm,Calm,-,N/A,Rain,Light Rain,0,2013-05-24 00:35:00
8:55 PM,67.5,64.9,92,29.84,10.0,Calm,Calm,-,N/A,Rain,Light Rain,0,2013-05-24 00:55:00
9:15 PM,67.5,64.9,92,29.84,10.0,Calm,Calm,-,N/A,,Mostly Cloudy,0,2013-05-24 01:15:00
9:35 PM,67.5,65.3,93,29.83,10.0,South,3.5,-,N/A,,Mostly Cloudy,190,2013-05-24 01:35:00
9:55 PM,67.3,65.3,93,29.84,10.0,South,5.8,-,N/A,,Mostly Cloudy,190,2013-05-24 01:55:00
10:15 PM,67.8,65.5,92,29.85,10.0,South,3.5,-,N/A,,Overcast,190,2013-05-24 02:15:00
10:35 PM,68.0,65.7,92,29.85,10.0,WSW,4.6,-,N/A,,Overcast,240,2013-05-24 02:35:00
10:55 PM,68.0,65.5,92,29.85,10.0,SSW,4.6,-,N/A,,Overcast,210,2013-05-24 02:55:00
11:15 PM,68.0,65.5,92,29.84,10.0,SSW,3.5,-,N/A,,Mostly Cloudy,200,2013-05-24 03:15:00
11:35 PM,68.0,65.3,91,29.85,10.0,WSW,4.6,-,N/A,,Overcast,240,2013-05-24 03:35:00
11:55 PM,68.0,65.3,91,29.85,10.0,WSW,3.5,-,N/A,,Overcast,240,2013-05-24 03:55:00